Retour au catalogue

HULIANWANG DIGUI-171

ActifScienceLEO
NORAD 69574·PAYLOAD·🇨🇳 China

Lancé Jun 17, 2026 depuis Wenchang Space Launch Site

Loading…

Prochains Passages (prochaines 24 heures)

TLE

FraisSource: Space-Track

Époque: Sep 14, 2026, 02:02 UTC

1 69574U 26137C   26257.08490382 -.00000087  00000-0  80246-4 0  9996
2 69574  49.9966 277.1236 0000637 148.0296 212.0615 13.29328544 12157

Suivez HULIANWANG DIGUI-171 en temps réel avec AllMySat

Download on the App Store